When you browse on this site, cookies collect data to enhance your experience and personalize the content and advertising you see.
Visit our Privacy Policy to learn more. By continuing to use the site, you agree to this use of cookies and data.
  • Em Portugal
  • Lista de países
  • Para 7 dias
  • Temperatura da água
  • Mapas de satélite
  • Mapa do tempo
  • Widgets de tempo
  • user-avatar
    Iniciar Sessão

    Previsão horária em Katki

    Hoje, 18 Fevereiro, Segunda-feira

    Tempo Temperatura Precipitação Vento Pressão Humidade
    00:00 +5°C° 0 mm 1 m/s 763 mmHg 93%
    01:00 +3°C° 0 mm 0 m/s 762 mmHg 95%
    02:00 +2°C° 0 mm 0 m/s 762 mmHg 95%
    03:00 +2°C° 0 mm 0 m/s 762 mmHg 95%
    04:00 +2°C° 0 mm 0 m/s 762 mmHg 95%
    05:00 +3°C° 0 mm 1 m/s 762 mmHg 95%
    06:00 +3°C° 0 mm 1 m/s 762 mmHg 95%
    07:00 +3°C° 0 mm 1 m/s 762 mmHg 95%
    08:00 +3°C° 0 mm 2 m/s 762 mmHg 92%
    09:00 +5°C° 0 mm 2 m/s 762 mmHg 89%
    10:00 +6°C° 0 mm 2 m/s 762 mmHg 86%
    11:00 +7°C° 0 mm 3 m/s 762 mmHg 81%
    12:00 +8°C° 0 mm 3 m/s 761 mmHg 77%
    13:00 +8°C° 0 mm 4 m/s 761 mmHg 73%
    14:00 +8°C° 0 mm 4 m/s 761 mmHg 75%
    15:00 +9°C° 0 mm 3 m/s 760 mmHg 77%
    16:00 +8°C° 0 mm 3 m/s 760 mmHg 79%
    17:00 +7°C° 0 mm 3 m/s 760 mmHg 82%
    18:00 +6°C° 0 mm 4 m/s 759 mmHg 86%
    19:00 +5°C° 0 mm 4 m/s 759 mmHg 89%
    20:00 +4°C° 0 mm 4 m/s 759 mmHg 89%
    21:00 +4°C° 0 mm 4 m/s 758 mmHg 89%
    22:00 +3°C° 0 mm 4 m/s 758 mmHg 88%
    23:00 +3°C° 0 mm 3 m/s 758 mmHg 87%

    Amanhã, 19 Fevereiro, Terça-feira

    Tempo Temperatura Precipitação Vento Pressão Humidade
    00:00 +3°C° 0 mm 3 m/s 757 mmHg 87%
    01:00 +2°C° 0 mm 3 m/s 757 mmHg 86%
    02:00 +2°C° 0 mm 3 m/s 757 mmHg 85%
    03:00 +2°C° 0 mm 3 m/s 756 mmHg 84%
    04:00 0°C° 0 mm 4 m/s 756 mmHg 83%
    05:00 0°C° 0 mm 4 m/s 755 mmHg 83%
    06:00 0°C° 0 mm 4 m/s 755 mmHg 82%
    07:00 0°C° 0 mm 4 m/s 754 mmHg 82%
    08:00 +1°C° 0 mm 5 m/s 754 mmHg 77%
    09:00 +2°C° 0 mm 5 m/s 754 mmHg 73%
    10:00 +4°C° 0 mm 6 m/s 753 mmHg 69%
    11:00 +5°C° 0 mm 6 m/s 753 mmHg 68%
    12:00 +7°C° 0 mm 6 m/s 753 mmHg 66%
    13:00 +8°C° 0 mm 6 m/s 753 mmHg 65%
    14:00 +8°C° 0 mm 6 m/s 753 mmHg 68%
    15:00 +8°C° 0 mm 5 m/s 753 mmHg 72%
    16:00 +8°C° 0 mm 4 m/s 752 mmHg 75%
    17:00 +7°C° 0.3 mm 4 m/s 753 mmHg 79%
    18:00 +6°C° 0.3 mm 4 m/s 753 mmHg 82%
    19:00 +5°C° 0.3 mm 4 m/s 753 mmHg 85%
    20:00 +5°C° 0 mm 4 m/s 753 mmHg 85%
    21:00 +4°C° 0 mm 4 m/s 753 mmHg 86%
    22:00 +4°C° 0 mm 4 m/s 753 mmHg 86%
    23:00 +4°C° 0 mm 4 m/s 753 mmHg 86%

    Depois de amanhã, 20 Fevereiro, Quarta-feira

    Tempo Temperatura Precipitação Vento Pressão Humidade
    00:00 +3°C° 0 mm 5 m/s 753 mmHg 85%
    01:00 +3°C° 0 mm 5 m/s 753 mmHg 84%
    02:00 +3°C° 0 mm 5 m/s 753 mmHg 83%
    03:00 +3°C° 0 mm 5 m/s 753 mmHg 83%
    04:00 +2°C° 0 mm 5 m/s 753 mmHg 82%
    05:00 +2°C° 0.1 mm 5 m/s 754 mmHg 82%
    06:00 +2°C° 0.1 mm 5 m/s 754 mmHg 82%
    07:00 +2°C° 0.1 mm 5 m/s 754 mmHg 82%
    08:00 +3°C° 0.1 mm 6 m/s 755 mmHg 79%
    09:00 +3°C° 0.1 mm 6 m/s 755 mmHg 76%
    10:00 +3°C° 0.1 mm 7 m/s 755 mmHg 72%
    11:00 +4°C° 0 mm 7 m/s 756 mmHg 70%
    12:00 +4°C° 0 mm 7 m/s 756 mmHg 68%
    13:00 +5°C° 0 mm 7 m/s 756 mmHg 66%
    14:00 +5°C° 0 mm 7 m/s 756 mmHg 68%
    15:00 +4°C° 0 mm 6 m/s 757 mmHg 69%
    16:00 +4°C° 0 mm 6 m/s 757 mmHg 71%
    17:00 +5°C° 0 mm 5 m/s 757 mmHg 75%
    18:00 +4°C° 0 mm 4 m/s 758 mmHg 78%
    19:00 +4°C° 0 mm 4 m/s 758 mmHg 82%
    20:00 +4°C° 0 mm 3 m/s 758 mmHg 84%
    21:00 +3°C° 0 mm 3 m/s 758 mmHg 87%
    22:00 +4°C° 0 mm 2 m/s 758 mmHg 89%
    23:00 +4°C° 0.2 mm 3 m/s 758 mmHg 90%

    21 Fevereiro, Quinta-feira

    Tempo Temperatura Precipitação Vento Pressão Humidade
    00:00 +4°C° 0.2 mm 3 m/s 758 mmHg 92%
    01:00 +4°C° 0.2 mm 3 m/s 758 mmHg 93%
    02:00 +4°C° 0.6 mm 3 m/s 758 mmHg 93%
    03:00 +4°C° 0.6 mm 3 m/s 758 mmHg 93%
    04:00 +4°C° 0.6 mm 4 m/s 757 mmHg 92%
    05:00 +4°C° 0.4 mm 4 m/s 757 mmHg 92%
    06:00 +4°C° 0.4 mm 4 m/s 757 mmHg 92%
    07:00 +4°C° 0.4 mm 4 m/s 757 mmHg 92%
    08:00 +4°C° 0.9 mm 3 m/s 757 mmHg 92%
    09:00 +4°C° 0.9 mm 3 m/s 757 mmHg 93%
    10:00 +5°C° 0.9 mm 2 m/s 758 mmHg 93%
    11:00 +5°C° 0.2 mm 3 m/s 758 mmHg 91%
    12:00 +7°C° 0.2 mm 3 m/s 758 mmHg 89%
    13:00 +7°C° 0.2 mm 3 m/s 758 mmHg 87%
    14:00 +7°C° 0 mm 3 m/s 759 mmHg 88%
    15:00 +6°C° 0 mm 2 m/s 759 mmHg 89%
    16:00 +6°C° 0 mm 2 m/s 760 mmHg 90%
    17:00 +4°C° 0.2 mm 3 m/s 761 mmHg 90%
    18:00 +3°C° 0.2 mm 3 m/s 761 mmHg 90%
    19:00 +1°C° 0.2 mm 4 m/s 762 mmHg 89%
    20:00 +1°C° 0 mm 3 m/s 763 mmHg 86%
    21:00 +1°C° 0 mm 3 m/s 764 mmHg 82%
    22:00 0°C° 0 mm 3 m/s 765 mmHg 79%
    23:00 0°C° 0 mm 3 m/s 765 mmHg 77%

    22 Fevereiro, Sexta-feira

    Tempo Temperatura Precipitação Vento Pressão Humidade
    00:00 -1°C° 0 mm 2 m/s 766 mmHg 75%
    01:00 -1°C° 0 mm 2 m/s 767 mmHg 73%
    02:00 -2°C° 0 mm 2 m/s 767 mmHg 70%
    03:00 -2°C° 0 mm 2 m/s 768 mmHg 68%
    04:00 -2°C° 0 mm 3 m/s 769 mmHg 65%
    05:00 -2°C° 0 mm 2 m/s 770 mmHg 64%
    06:00 -2°C° 0 mm 2 m/s 770 mmHg 62%
    07:00 -2°C° 0 mm 2 m/s 771 mmHg 61%
    08:00 -2°C° 0 mm 2 m/s 772 mmHg 55%
    09:00 -1°C° 0 mm 2 m/s 773 mmHg 50%
    10:00 +1°C° 0 mm 2 m/s 773 mmHg 44%
    11:00 +2°C° 0 mm 2 m/s 774 mmHg 41%
    12:00 +2°C° 0 mm 2 m/s 774 mmHg 37%
    13:00 +3°C° 0 mm 2 m/s 774 mmHg 34%
    14:00 +4°C° 0 mm 1 m/s 774 mmHg 37%
    15:00 +4°C° 0 mm 1 m/s 775 mmHg 39%
    16:00 +3°C° 0 mm 0 m/s 775 mmHg 42%
    17:00 +3°C° 0 mm 1 m/s 775 mmHg 44%
    18:00 +2°C° 0 mm 1 m/s 775 mmHg 47%
    19:00 +1°C° 0 mm 2 m/s 776 mmHg 49%
    20:00 -1°C° 0 mm 2 m/s 776 mmHg 51%
    21:00 -1°C° 0 mm 2 m/s 776 mmHg 52%
    22:00 -1°C° 0 mm 3 m/s 776 mmHg 54%
    23:00 -1°C° 0 mm 3 m/s 776 mmHg 54%

    23 Fevereiro, Sábado

    Tempo Temperatura Precipitação Vento Pressão Humidade
    00:00 -2°C° 0 mm 4 m/s 776 mmHg 55%
    01:00 -2°C° 0 mm 4 m/s 776 mmHg 55%
    02:00 -2°C° 0 mm 4 m/s 775 mmHg 56%
    03:00 -2°C° 0 mm 4 m/s 775 mmHg 58%
    04:00 -2°C° 0 mm 4 m/s 775 mmHg 59%
    05:00 -2°C° 0 mm 4 m/s 774 mmHg 61%
    06:00 -2°C° 0 mm 4 m/s 774 mmHg 63%
    07:00 -2°C° 0 mm 4 m/s 774 mmHg 65%
    08:00 0°C° 0 mm 4 m/s 773 mmHg 68%
    09:00 +1°C° 0 mm 4 m/s 773 mmHg 71%
    10:00 +2°C° 0 mm 5 m/s 773 mmHg 74%
    11:00 +3°C° 0 mm 5 m/s 772 mmHg 76%
    12:00 +5°C° 0 mm 5 m/s 772 mmHg 78%
    13:00 +5°C° 0 mm 6 m/s 772 mmHg 81%
    14:00 +5°C° 0 mm 6 m/s 771 mmHg 82%
    15:00 +6°C° 0 mm 5 m/s 771 mmHg 84%
    16:00 +6°C° 0 mm 5 m/s 770 mmHg 86%
    17:00 +5°C° 0 mm 4 m/s 770 mmHg 87%
    18:00 +5°C° 0 mm 4 m/s 770 mmHg 88%
    19:00 +4°C° 0 mm 3 m/s 770 mmHg 90%
    20:00 +4°C° 0 mm 3 m/s 770 mmHg 89%
    21:00 +4°C° 0 mm 3 m/s 770 mmHg 89%
    22:00 +3°C° 0 mm 3 m/s 769 mmHg 88%
    23:00 +3°C° 0 mm 3 m/s 769 mmHg 88%
    Mostrar mais